TimeCST,TemperatureF,Dew PointF,Humidity,Sea Level PressureIn,VisibilityMPH,Wind Direction,Wind SpeedMPH,Gust SpeedMPH,PrecipitationIn,Events,Conditions,WindDirDegrees,DateUTC
12:53 AM,64.0,51.1,63,30.28,10.0,WSW,4.6,-,N/A,,Mostly Cloudy,250,2013-11-12 06:53:00
1:53 AM,61.0,52.0,72,30.30,10.0,NNW,17.3,-,N/A,,Mostly Cloudy,340,2013-11-12 07:53:00
2:53 AM,62.1,55.0,78,30.32,10.0,North,12.7,18.4,N/A,,Mostly Cloudy,360,2013-11-12 08:53:00
3:26 AM,61.0,55.0,81,30.35,7.0,North,18.4,26.5,N/A,,Overcast,350,2013-11-12 09:26:00
3:53 AM,57.0,50.0,77,30.36,10.0,North,25.3,33.4,N/A,,Overcast,360,2013-11-12 09:53:00
4:53 AM,52.0,46.0,80,30.41,10.0,NNW,24.2,-,N/A,,Overcast,340,2013-11-12 10:53:00
5:53 AM,48.9,42.1,77,30.46,10.0,North,24.2,34.5,N/A,,Overcast,10,2013-11-12 11:53:00
6:53 AM,48.0,39.0,71,30.50,10.0,North,20.7,29.9,N/A,,Overcast,350,2013-11-12 12:53:00
7:53 AM,48.0,37.9,68,30.55,10.0,North,17.3,26.5,N/A,,Overcast,350,2013-11-12 13:53:00
8:53 AM,46.9,35.1,63,30.58,10.0,North,18.4,25.3,N/A,,Mostly Cloudy,360,2013-11-12 14:53:00
9:53 AM,46.9,33.1,59,30.60,10.0,North,24.2,-,N/A,,Mostly Cloudy,10,2013-11-12 15:53:00
10:53 AM,48.9,33.1,54,30.60,10.0,North,21.9,28.8,N/A,,Partly Cloudy,360,2013-11-12 16:53:00
11:53 AM,51.1,30.0,44,30.61,10.0,North,20.7,31.1,N/A,,Partly Cloudy,360,2013-11-12 17:53:00
12:53 PM,51.1,26.1,38,30.60,10.0,North,19.6,-,N/A,,Clear,360,2013-11-12 18:53:00
1:53 PM,53.1,23.0,31,30.58,10.0,North,21.9,27.6,N/A,,Partly Cloudy,10,2013-11-12 19:53:00
2:53 PM,52.0,18.0,26,30.58,10.0,North,21.9,31.1,N/A,,Clear,10,2013-11-12 20:53:00
3:53 PM,51.1,18.0,27,30.59,10.0,North,21.9,-,N/A,,Clear,10,2013-11-12 21:53:00
4:53 PM,48.9,18.0,29,30.61,10.0,North,16.1,-,N/A,,Clear,10,2013-11-12 22:53:00
5:53 PM,46.0,17.1,31,30.61,10.0,North,18.4,-,N/A,,Partly Cloudy,10,2013-11-12 23:53:00
6:53 PM,44.1,19.0,37,30.64,10.0,NNE,12.7,-,N/A,,Clear,20,2013-11-13 00:53:00
7:53 PM,43.0,19.0,38,30.65,10.0,NNE,12.7,-,N/A,,Clear,20,2013-11-13 01:53:00
8:53 PM,41.0,19.9,43,30.67,10.0,NNE,13.8,-,N/A,,Clear,30,2013-11-13 02:53:00
9:53 PM,39.0,19.9,46,30.69,10.0,NNE,10.4,-,N/A,,Clear,20,2013-11-13 03:53:00
10:53 PM,37.9,19.0,47,30.69,10.0,NNE,9.2,-,N/A,,Clear,20,2013-11-13 04:53:00
11:53 PM,36.0,19.0,50,30.69,10.0,NNE,8.1,-,N/A,,Clear,20,2013-11-13 05:53:00